Weather Roundup
Issued by NWS Chicago, IL

Home | Current Version | Previous Version | Graphics & Text | Print | Product List | Glossary On
Versions: 1 2 3 4 5 6 7 8 9 10 11 12 13 14 15 16 17 18 19 20 21 22 23 24 25 26 27 28 29 30 31 32 33 34 35 36 37 38 39 40 41 42 43 44 45 46 47 48 49 50
000
NZUS59 KLOT 042103
HRRLOT

CHICAGO AREA WEATHER ROUNDUP
NATIONAL WEATHER SERVICE CHICAGO/ROMEOVILLE IL
400 PM CDT WED MAY 04 2016

NOTE: "FAIR" INDICATES FEW OR NO CLOUDS BELOW 12,000 FEET WITH NO
SIGNIFICANT WEATHER AND/OR OBSTRUCTIONS TO VISIBILITY.

* THESE STATIONS ARE NOT UNDER NWS QUALITY CONTROL. THEY ALSO MAY NOT
  REPORT WEATHER SUCH AS PRECIPITATION OR FOG.

ILZ005-006-012>014-019>023-042200-
NORTHEAST ILLINOIS

CITY           SKY/WX    TMP DP  RH WIND       PRES   REMARKS
OHARE          CLOUDY    48  37  65 N7        29.80S
MIDWAY         CLOUDY    47  35  63 N14       29.81R
AURORA         CLOUDY    53  40  61 N14       29.81S
LANSING*       CLOUDY    45  37  72 N15G21    29.81R
WAUKEGAN       CLOUDY    48  37  65 N7        29.80S
DUPAGE AIRPORT CLOUDY    52  37  56 N13       29.79F
WHEELING       CLOUDY    49  38  65 VRB5      29.81F
$$

WIZ051-052-058>065-066-070>072-042200-
SOUTHEAST WISCONSIN

CITY           SKY/WX    TMP DP  RH WIND       PRES   REMARKS
MILWAUKEE      CLOUDY    46  37  71 NE10      29.81R
KENOSHA*       CLOUDY    49  38  65 NE9       29.80S
RACINE*        CLOUDY    46  37  71 N10       29.82S
BURLINGTON     CLOUDY    50  36  58 N14       29.80S
WAUKESHA       CLOUDY    52  36  54 N14G23    29.81S
$$

INZ001>003-010>013-019-020-042200-
NORTHWEST INDIANA

CITY           SKY/WX    TMP DP  RH WIND       PRES   REMARKS
GARY*          CLOUDY    46  41  81 N12G23    29.82R
MICHIGAN CITY* NOT AVBL
RENSSELAER*    NOT AVBL
VALPARAISO     CLOUDY    44  35  70 N16G24    29.80R
$$

LMZ740>746-042200-
SOUTHERN LAKE MICHIGAN

STATION/POSITION TIME  SKY/WX   TEMP WIND        PRES    VSBY
                                AIR  DIR/SP/G
                 (UTC)          (F)  (DEG/KT/KT) (MB)    (MI)
HARRISON CRIB    2000            44  360/ 21/ 24   N/A
BURNHAM HARBOR   2100            45  350/  9/ 17   N/A
CALUMET HARBOR   2000            45  330/ 15/ 21 1009.0R
BURNS HARBOR     2008            44  360/ 22     1009.5R
MICHIGAN CITY    2000            43  320/ 24/ 27   N/A
$$

ABBREVIATIONS USED IN REMARKS
   TC - TEMPERATURE IN CELSIUS
  WCI - WIND CHILL INDEX
   HX - HEAT INDEX
  VSB - VISIBILITY
$$




USA.gov is the U.S. government's official web portal to all federal, state and local government web resources and services.